Regional Weather Roundup
Issued by NWS

Home | Current Version | Previous Version | Graphics & Text | Print | Product List | Glossary On
Versions: 1 2 3 4 5 6 7 8 9 10 11 12 13 14 15 16 17 18 19 20 21 22 23 24 25 26 27 28 29 30 31 32 33 34 35 36 37 38 39 40 41 42 43 44 45 46 47 48 49 50
665
ASUS44 KJAN 201803
RWRMS

MISSISSIPPI HOURLY WEATHER ROUNDUP
NATIONAL WEATHER SERVICE JACKSON MS
100 PM CDT MON APR 20 2015

NOTE: "FAIR: INDICATES FEW OR NO CLOUDS BELOW 12,000 FEET WITH NO
SIGNIFICANT WEATHER AND/OR OBSTRUCTIONS TO VISIBILITY.

MSZ001>002-007>008-010>013-018>021-025>028-034>036-201900-
NORTHWEST MISSISSIPPI

CITY           SKY/WX    TMP DP  RH WIND       PRES   REMARKS
CLARKSDALE     FAIR      63  46  55 W15G22    29.88F
CLEVELAND      FAIR      64  47  53 NW16G25   29.88F
GREENWOOD      PTSUNNY   64  47  53 W8G16     29.88F
6HR MIN TEMP:  58; 6HR MAX TEMP:  66;

GREENVILLE     MOSUNNY   65  44  46 NW14G30   29.89F
6HR MIN TEMP:  57; 6HR MAX TEMP:  65;

OLIVE BRANCH   PTSUNNY   61  43  51 NW12G23   29.84S
OXFORD         PTSUNNY   59  45  58 NW13G22   29.87R
TUNICA         PTCLDY    63  45  51 W15       29.87S
$$

MSZ003>006-009-014>017-022>024-029>033-037>039-201900-
NORTHEAST MISSISSIPPI

CITY           SKY/WX    TMP DP  RH WIND       PRES   REMARKS
COLUMBUS AFB   MOSUNNY   66  51  58 W9G18     29.84F
6HR MIN TEMP:  59; 6HR MAX TEMP:  66;

CORINTH        CLOUDY    63  48  59 W16G23    29.80S
GOLDN TRIANGLE PTSUNNY   64  52  63 NW14      29.85S
STARKVILLE     CLOUDY    64  52  63 W10G16    29.85F
TUPELO         PTSUNNY   64  48  56 W14G21    29.82F
6HR MIN TEMP:  58; 6HR MAX TEMP:  65;

$$

MSZ040-058-201900-
CENTRAL MISSISSIPPI

CITY           SKY/WX    TMP DP  RH WIND       PRES   REMARKS
JACKSON INTL   MOSUNNY   67  49  52 NW10G16   29.89F
6HR MIN TEMP:  62; 6HR MAX TEMP:  68;

JACKSON HAWKNS PTSUNNY   65  48  54 NW12G21   29.89F
6HR MIN TEMP:  60; 6HR MAX TEMP:  67;

MERIDIAN KEY   PTSUNNY   70  51  51 W12G23    29.85S
6HR MIN TEMP:  61; 6HR MAX TEMP:  73;

MERIDIAN NAS   MOSUNNY   72  51  47 W17G25    29.85S
6HR MIN TEMP:  63; 6HR MAX TEMP:  73;

RAYMOND        MOCLDY    66  61  82 NW9G18    29.89F
VICKSBURG      SUNNY     68  48  48 NW8       29.92S
6HR MIN TEMP:  60; 6HR MAX TEMP:  68;

$$

MSZ059>079-201900-
SOUTH MISSISSIPPI

CITY           SKY/WX    TMP DP  RH WIND       PRES   REMARKS
BROOKHAVEN     FAIR      68  54  60 W9G16     29.91F
HATTIESBURG    PTSUNNY   76  56  49 NW14G21   29.86F
6HR MIN TEMP:  66; 6HR MAX TEMP:  76;

MCCOMB         MOSUNNY   71  54  54 W8        29.89F
6HR MIN TEMP:  62; 6HR MAX TEMP:  71;

NATCHEZ        MOSUNNY   66  48  52 NW12G18   29.93S
6HR MIN TEMP:  59; 6HR MAX TEMP:  66;

PINE BELT      PTSUNNY   73  54  49 NW7       29.88F
6HR MIN TEMP:  63; 6HR MAX TEMP:  73;

$$

MSZ080>082-201900-
COASTAL MISSISSIPPI

CITY           SKY/WX    TMP DP  RH WIND       PRES   REMARKS
BAY ST LOUIS   SUNNY     72  50  46 MISG      29.85F
BILOXI         MOSUNNY   79  62  55 SW10G16   29.83F
6HR MIN TEMP:  71; 6HR MAX TEMP:  80;

PASCAGOULA     PTSUNNY   81  58  45 VRB7      29.83F
6HR MIN TEMP:  70; 6HR MAX TEMP:  81;

GULFPORT       MOSUNNY   80  57  45 NW13      29.83F
6HR MIN TEMP:  68; 6HR MAX TEMP:  80;

$$



USA.gov is the U.S. government's official web portal to all federal, state and local government web resources and services.